{"data":{"norad_id":55140,"epoch":"2026-05-25T02:24:52.765344Z","epoch_age_seconds":77027,"freshness":"FRESH","line1":"1 55140U 23004A   26145.10061071  .00000015  00000+0  49723-5 0  9993","line2":"2 55140  87.9154  10.4559 0002000  93.4636 266.6724 13.17651493164541","mean_motion":13.17651493,"eccentricity":0.0002,"inclination_deg":87.9154,"raan_deg":10.4559,"arg_perigee_deg":93.4636,"mean_anomaly_deg":266.6724,"bstar":4.9723e-6,"rev_number":16454,"period_min":109.28534651613,"perigee_km":1192.1893410788,"apogee_km":1195.2180773625,"semimajor_km":7571.8407092206,"source":"CELESTRAK","updated_at":"2026-05-25T13:38:22.638966Z"}}